This demonstration page uses our WeatherBlox Daily Observations layout. Learn more.

41.55636, -103.73856

Hourly Observations for August 5, 2016

Temp ( °F °C ) Dew Point ( °F °C ) Humidity (%) Winds ( mph kmh ) Pressure ( in mb ) Visibility ( mi km ) Precip ( " mm )
12:53 am 00:53 Clear 63 17.2 55 12.8 76 76 S 7 11 30.05 1018 10 16.0934 0 0
1:53 am 01:53 Cloudy with Light Rain 63 17.2 54 12.2 73 73 SE 6 9 30.05 1018 10 16.0934 0 0.0254
2:53 am 02:53 Cloudy 62 16.7 56 13.3 80 80 Calm 30.05 1018 10 16.0934 0 0.0254
3:53 am 03:53 Cloudy 62 16.7 56 13.3 80 80 Calm 30.06 1018 10 16.0934 0 0.0254
4:53 am 04:53 Cloudy 62 16.7 57 13.9 84 84 SE 3 6 30.05 1018 10 16.0934 0 0.0254
5:53 am 05:53 Cloudy with Light Rain 62 16.7 57 13.9 84 84 Calm 30.06 1018 10 16.0934 0 0.0254
6:53 am 06:53 Cloudy 63 17.2 58 14.4 84 84 ENE 3 6 30.08 1019 10 16.0934 0 0.0254
7:53 am 07:53 Cloudy 63 17.2 57 13.9 81 81 E 6 9 30.08 1019 10 16.0934 0 0
8:53 am 08:53 Cloudy 64 17.8 55 12.8 73 73 E 5 7 30.09 1019 10 16.0934 0 0
9:53 am 09:53 Cloudy 65 18.3 56 13.3 73 73 ESE 6 9 30.1 1019 10 16.0934 0 0
10:53 am 10:53 Cloudy 66 18.9 54 12.2 65 65 ESE 7 11 30.11 1020 10 16.0934 0 0
11:53 am 11:53 Cloudy 66 18.9 55 12.8 68 68 SE 7 11 30.12 1020 10 16.0934 0 0
12:53 pm 12:53 Cloudy 70 21.1 56 13.3 61 61 SE 10 17 30.09 1019 10 16.0934 0 0
1:53 pm 13:53 Cloudy 72 22.2 54 12.2 53 53 ESE 12 19 30.07 1018 10 16.0934 0 0
2:53 pm 14:53 Cloudy 72 22.2 55 12.8 55 55 ESE 10 17 30.07 1018 10 16.0934 0 0
3:53 pm 15:53 Cloudy 72 22.2 54 12.2 53 53 ESE 13 20 30.05 1018 10 16.0934 0 0
4:53 pm 16:53 Cloudy 72 22.2 54 12.2 53 53 ESE 15 24 30.04 1017 10 16.0934 0 0
5:53 pm 17:53 Mostly Cloudy 72 22.2 54 12.2 53 53 ESE 13 20 30.03 1017 10 16.0934 0 0
6:53 pm 18:53 Cloudy 71 21.7 54 12.2 55 55 ESE 13 20 30.02 1017 10 16.0934 0 0
7:53 pm 19:53 Sunny 67 19.4 53 11.7 61 61 E 10 17 30.02 1017 10 16.0934 0 0
8:53 pm 20:53 Mostly Cloudy 66 18.9 53 11.7 63 63 ESE 13 20 30.03 1017 10 16.0934 0 0
9:53 pm 21:53 Mostly Cloudy 63 17.2 53 11.7 70 70 ESE 8 13 30.06 1018 10 16.0934 0 0
10:53 pm 22:53 Cloudy 63 17.2 54 12.2 73 73 ESE 9 15 30.05 1018 10 16.0934 0 0
11:53 pm 23:53 Cloudy 64 17.8 52 11.1 65 65 ESE 10 17 30.06 1018 10 16.0934 0 0

Powered by AerisWeather